SES-15 (WAAS/PRN 133)

Last updated on Nov. 14, 2019, 4:22 a.m. UTC

1 42709U 17026A   19317.88764830  .00000073  00000-0  00000+0 0  9992
2 42709   0.0116 300.4929 0000965 276.5616  26.0998  1.00273643 10047
UTC
Height (km)
Latitude
Longitude
Inclination
Orbital Period
UTC large
Height (km)
Speed (km/s)
/
Latitude / Longitude
Inclination (degrees)
Orbital Period (minutes)
Azimuth
Elevation
Range (km)
Doppler Factor
iOS Compass Heading
iOS Angle

Next 30 passes for location: Hong Kong

Rise time Rise Azimuth (degrees) Set time Set Azimuth (degrees) Duration Max altitude (degrees)

No matching passes for this satellites